Regional Weather Roundup
Issued by NWS Cleveland, OH

Home | Current Version | Previous Version | Graphics & Text | Print | Product List | Glossary On
Versions: 1 2 3 4 5 6 7 8 9 10 11 12 13 14 15 16 17 18 19 20 21 22 23 24 25 26 27 28 29 30 31 32 33 34 35 36 37 38 39 40 41 42 43 44 45 46 47 48 49 50
000
ASUS41 KCLE 281900
RWRCLE
OHIO REGIONAL WEATHER ROUNDUP
NATIONAL WEATHER SERVICE WILMINGTON, OH
300 PM EDT TUE JUL 28 2015

NOTE: "FAIR" INDICATES FEW OR NO CLOUDS BELOW 12,000 FEET WITH NO
SIGNIFICANT WEATHER AND/OR OBSTRUCTIONS TO VISIBILITY.

OHZ001>008-015>018-024>027-034-035-043-044-282000-
   NORTHWEST OHIO

CITY           SKY/WX    TMP DP  RH WIND       PRES   REMARKS
DEFIANCE       SUNNY     90  60  36 SE3       30.01S
FINDLAY        SUNNY     89  61  38 SW5       30.00F
TOLEDO EXPRESS MOSUNNY   90  63  40 VRB5      30.01S HX  91
TOLEDO EXEC    SUNNY     89  64  43 VRB6      30.02S HX  90
LIMA           MOSUNNY   87  65  47 VRB6      30.00F
$$

OHZ009>014-019>023-028>033-038-089-282000-
   NORTHEAST OHIO

CITY           SKY/WX    TMP DP  RH WIND       PRES   REMARKS
CLE-HOPKINS    MOSUNNY   88  67  49 N13       30.02F HX  91
CLE-LAKEFRONT  SUNNY     83  73  72 NE12      30.00F
CUY CO. ARPT   MOSUNNY   90  68  48 N14       30.02F HX  93
LORAIN-ELYRIA  SUNNY     87  63  44 N8        30.02S
ASHTABULA      MOSUNNY   88  66  48 N8        30.03F HX  90
AKRON-CANTON   MOSUNNY   88  63  43 NE6       30.02F
WOOSTER        NOT AVBL
MANSFIELD      PTSUNNY   87  59  38 VRB3      30.03F
YOUNGSTOWN     PTSUNNY   88  61  40 NE6       30.03F
$$

OHZ042-051>053-060>062-070>072-077>081-282000-
  SOUTHWEST OHIO

CITY           SKY/WX    TMP DP  RH WIND       PRES   REMARKS
CINC-COVINGTON MOSUNNY   91  72  53 N7        29.98F HX  98
CINC-LUNKEN    PTSUNNY   88  72  58 CALM      29.96F HX  94
HAMILTON       PTSUNNY   90  73  57 N7        29.98F HX  98
DAYTON         NOT AVBL
WRIGHT-PAT AFB MOSUNNY   88  72  58 NE6       29.99F HX  94
DAYTON GENERAL MOSUNNY   86  68  54 NW3       29.99F
WILMINGTON     MOSUNNY   86  70  58 CALM      29.99F HX  90
$$

OHZ036-037-039>041-045>050-054>059-063>069-073>076-082>088-282000-
  CENTRAL AND SOUTHEAST OHIO

CITY           SKY/WX    TMP DP  RH WIND       PRES   REMARKS
COLUMBUS       MOSUNNY   90  67  46 E6        29.98F HX  93
OSU AIRPORT    CLOUDY    87  67  51 E3        29.99F HX  90
BOLTON FIELD   PTSUNNY   88  70  55 CALM      30.00F HX  92
RICKENBACK AFB NOT AVBL
NEWARK         CLOUDY    87  69  54 CALM      29.99F HX  91
MARION         PTSUNNY   88  65  46 NE6       30.01F HX  90
LANCASTER      PTSUNNY   87  69  54 CALM      29.99F HX  91
ZANESVILLE     MOSUNNY   88  64  44 CALM      30.00F
NEW PHILLY     MOSUNNY   87  67  51 CALM      30.01F HX  90
$$



USA.gov is the U.S. government's official web portal to all federal, state and local government web resources and services.